Flag for Russia Weather past 2 weeks in Khabarovsk, Russia

Now
57 °F

Clear.


Feels Like: 57 °F
Forecast: 58 / 82 °F
Wind: No wind

Location: Habarovsk

Current Time: Aug 31, 2014 at 5:45:26 AM

Latest Report: Aug 31, 2014 at 4:30 AM


Visibility: 10 mi

Pressure: 29.95 "Hg

Humidity: 94%

Dew point: 55 °F

Location of KhabarovskLocation

Historic Weather in Khabarovsk — Graph

°F

Khabarovsk temperature yesterday

Maximum temperature yesterday: 82 °F (at 3:30 PM)
Minimum temperature yesterday: 57 °F (at 2:00 AM)
Average temperature yesterday: 71 °F

Past Weeks' High & Low Weather Summary

 TemperatureHumidityPressure
High82 °F (Aug 16, 5:30 PM)100% (Aug 16, 4:00 AM)30.07 "Hg (Aug 16, 4:00 AM)
Low52 °F (Aug 27, 6:30 AM)42% (Aug 29, 4:00 PM)29.68 "Hg (Aug 23, 9:30 AM)
Average69 °F79%29.90 "Hg
* Reported Aug 16 4:00 AM — Aug 31 4:00 AM, Khabarovsk, Weather by CustomWeather, © 2014

Note: Actual official high and low records may vary slightly from our data, if they occured in-between our weather recording intervals... More about our weather records

Advertising

Khabarovsk weather history for previous 24 hours

 ConditionsComfort  
Time TempWeatherWind HumidityBarometerVisibility
4:00 AM
Aug 31
59 °FClear.3 mph94%29.95 "Hg10 mi
3:30 AM63 °FClear.3 mph88%29.95 "Hg10 mi
3:00 AM61 °FClear.No wind94%29.95 "Hg10 mi
2:30 AM61 °FClear.No wind94%29.95 "Hg10 mi
2:00 AM63 °FClear.3 mph88%29.95 "Hg10 mi
1:30 AM64 °FClear.No wind83%29.95 "Hg10 mi
1:00 AM64 °FClear.3 mph83%29.95 "Hg10 mi
12:30 AM64 °FClear.1 mph83%29.98 "Hg10 mi
12:00 AM64 °FClear.1 mph83%29.95 "Hg10 mi
11:30 PM
Aug 30
66 °FClear.No wind78%29.98 "Hg10 mi
11:00 PM64 °FClear.No wind83%29.95 "Hg10 mi
10:30 PM64 °FClear.No wind83%29.95 "Hg10 mi
10:00 PM64 °FClear.No wind83%29.95 "Hg10 mi
9:30 PM72 °FSunny.1 mph65%29.95 "Hg10 mi
9:00 PM72 °FSunny.No wind69%29.95 "Hg10 mi
8:30 PM73 °FSunny.1 mph65%29.95 "Hg10 mi
8:00 PM77 °FSunny.6 mph54%29.92 "Hg10 mi
7:30 PM79 °FSunny.6 mph48%29.95 "Hg10 mi
7:00 PM81 °FSunny.6 mph48%29.95 "Hg10 mi
6:30 PM81 °FPassing clouds.6 mph48%29.95 "HgN/A
6:00 PM81 °FPassing clouds.8 mph45%29.95 "HgN/A
5:30 PM82 °FPassing clouds.8 mph45%29.95 "HgN/A
5:00 PM82 °FPassing clouds.8 mph45%29.95 "HgN/A
4:30 PM82 °FPassing clouds.8 mph48%29.95 "HgN/A
4:00 PM82 °FPassing clouds.8 mph48%29.98 "HgN/A
3:30 PM82 °FPassing clouds.6 mph45%29.98 "HgN/A
3:00 PM81 °FPassing clouds.8 mph51%29.98 "HgN/A
2:30 PM81 °FPassing clouds.10 mph51%29.98 "HgN/A
2:00 PM81 °FPassing clouds.8 mph48%30.01 "HgN/A
1:30 PM79 °FSunny.6 mph51%30.01 "Hg10 mi
1:00 PM79 °FSunny.3 mph51%30.01 "Hg10 mi
12:30 PM79 °FSunny.3 mph51%30.01 "Hg10 mi
12:00 PM77 °FSunny.1 mph54%30.01 "Hg10 mi
11:30 AM77 °FSunny.1 mph61%30.01 "Hg10 mi
11:00 AM75 °FSunny.No wind61%30.01 "Hg10 mi
10:00 AM70 °FSunny.1 mph73%30.04 "Hg10 mi
9:30 AM68 °FSunny.No wind78%30.04 "Hg10 mi
9:00 AM66 °FSunny.No wind83%30.04 "Hg10 mi
8:00 AM57 °FClear.No wind94%30.01 "Hg10 mi
6:00 AM59 °FClear.1 mph88%30.01 "Hg10 mi
5:30 AM63 °FClear.3 mph83%30.01 "Hg10 mi
5:00 AM59 °FFog.3 mph88%30.01 "HgN/A
Weather by CustomWeather, © 2014

See weather overviewHow to use our weather pages